This is the latest recevied weather packets stored in our database for station/object W4SKW. If no packets are shown the sender has not sent any weather packets the latest 10 day(s).
| Time | Temp. | Humidity | Pressure | Rain* | Wind** | Luminosity | Snow |
|---|---|---|---|---|---|---|---|
| 1777129836 | 19.44° C | 91% | 1011.5 hPa | 0 mm | - | 120 W/m² | - |
| 1777129531 | 18.89° C | 91% | 1011.6 hPa | 0 mm | - | 124 W/m² | - |
| 1777129230 | 18.89° C | 90% | 1011.8 hPa | 0 mm | - | 131 W/m² | - |
| 1777128926 | 18.89° C | 90% | 1011.8 hPa | 0 mm | - | 131 W/m² | - |
| 1777128623 | 18.89° C | 91% | 1011.5 hPa | 0 mm | - | 142 W/m² | - |
| 1777128321 | 18.89° C | 91% | 1011.5 hPa | 0 mm | - | 142 W/m² | - |
| 1777128017 | 18.89° C | 91% | 1011.5 hPa | 0 mm | - | 142 W/m² | - |
| 1777127715 | 18.89° C | 92% | 1011.6 hPa | 0 mm | - | 162 W/m² | - |
| 1777127412 | 18.89° C | 93% | 1011.6 hPa | 0 mm | - | 171 W/m² | - |
| 1777127107 | 18.89° C | 93% | 1011.6 hPa | 0 mm | - | 152 W/m² | - |
| 1777126803 | 18.89° C | 93% | 1011.5 hPa | 0 mm | - | 116 W/m² | - |
| 1777126500 | 18.89° C | 93% | 1011.5 hPa | 0 mm | - | 116 W/m² | - |
| 1777126195 | 18.89° C | 94% | 1011.5 hPa | 0 mm | - | 121 W/m² | - |
| 1777125892 | 18.89° C | 94% | 1011.8 hPa | 0 mm | - | 127 W/m² | - |
| 1777125588 | 18.89° C | 95% | 1011.8 hPa | 0 mm | - | 130 W/m² | - |
| 1777125283 | 18.33° C | 95% | 1011.9 hPa | 0 mm | - | 113 W/m² | - |
| 1777124978 | 18.89° C | 94% | 1012 hPa | 0 mm | - | 113 W/m² | - |
| 1777124676 | 18.33° C | 94% | 1012.1 hPa | 0 mm | - | 108 W/m² | - |
| 1777124371 | 18.33° C | 94% | 1012.2 hPa | 0 mm | - | 87 W/m² | - |
| 1777124068 | 18.33° C | 94% | 1012.2 hPa | 0 mm | - | 42 W/m² | - |
| 1777123765 | 18.33° C | 94% | 1012.3 hPa | 0 mm | - | 46 W/m² | - |
| 1777123461 | 18.33° C | 94% | 1012.1 hPa | 0 mm | - | 59 W/m² | - |
| 1777123156 | 18.33° C | 94% | 1012.1 hPa | 0 mm | - | 59 W/m² | - |
| 1777122853 | 17.78° C | 94% | 1012 hPa | 0 mm | - | 87 W/m² | - |
| 1777122549 | 17.78° C | 94% | 1012 hPa | 0 mm | - | 87 W/m² | - |
* Rain latest hour (hover to see other rain measurements)
** Current wind speed in m/s (hover to see current wind gust speed)